Regional Weather Roundup
Issued by NWS

Home | Current Version | Previous Version | Text Only | Print | Product List | Glossary On
Versions: 1 2 3 4 5 6 7 8 9 10 11 12 13 14 15 16 17 18 19 20 21 22 23 24 25 26 27 28 29 30 31 32 33 34 35 36 37 38 39 40 41 42 43 44 45 46 47 48 49 50
000
ASUS43 KMPX 050501
RWRMN
WEATHER ROUNDUP FOR MINNESOTA
NATIONAL WEATHER SERVICE TWIN CITIES/CHANHASSEN MN
1200 AM CDT WED AUG 05 2015


NOTE: "FAIR" INDICATES FEW OR NO CLOUDS BELOW 12,000 FEET WITH NO
SIGNIFICANT WEATHER AND/OR OBSTRUCTIONS TO VISIBILITY. N/A MEANS
CURRENT SKY AND/OR WEATHER CONDITIONS ARE NOT AVAILABLE.

MNZ060>063-068>070-050600-
   Twin Cities Metro

CITY           SKY/WX    TMP DP  RH WIND       PRES   REMARKS
TWIN CITIES    PTCLDY    72  53  51 SW5       30.02R
ST PAUL        CLEAR     69  56  62 CALM      30.02S
CRYSTAL        CLEAR     66  55  67 CALM      30.01S
BLAINE         PTCLDY    64  57  77 CALM      30.02S
LAKEVILLE      CLEAR     55  55 100 CALM      30.03R
EDEN PRAIRIE   CLEAR     66  56  70 W5        30.02R
SOUTH ST PAUL  CLEAR     67  56  67 CALM      30.02S
LAKE ELMO      FAIR      59  57  94 CALM      30.04R
$$
MNZ001>005-007-008-013>017-022>024-027-028-050600-
   Northwest Minnesota

CITY           SKY/WX    TMP DP  RH WIND       PRES   REMARKS
BEMIDJI        CLEAR     53  50  89 E3        30.08R
HALLOCK        MOCLDY    57  54  88 NE6       30.06S
ROSEAU         CLEAR     55  50  82 CALM      30.07R
WARROAD        CLEAR     55  52  88 CALM      30.08R
THIEF RVR FALL CLEAR     57  52  82 E7        30.07R
CROOKSTON      PTCLDY    61  54  77 E7        30.05S
FOSSTON        CLEAR     54  46  76 CALM      30.07S
DETROIT LAKES  CLEAR     61  55  82 CALM      30.06S
MOORHEAD       CLEAR     61  55  82 E5        30.03S
PARK RAPIDS    CLEAR     62  52  69 E3        30.06S
MAHNOMEN       FAIR      56  54  93 E5        30.05S
$$
MNZ006-009>011-018-025>026-050600-
   North Central Minnesota

CITY           SKY/WX    TMP DP  RH WIND       PRES   REMARKS
BAUDETTE       CLEAR     52  49  89 CALM      30.08R
INTL FALLS     CLEAR     45  44  97 CALM      30.09R
WASKISH        CLEAR     50  48  93 CALM      30.09R
BIG FORK       CLEAR     46  45  93 CALM      30.10R
LONGVILLE      CLEAR     54  52  94 CALM      30.08R
GRAND RAPIDS   CLEAR     52  46  82 CALM      30.09R
CRANE LAKE     CLEAR     48  48 100 CALM      30.10R
ORR            CLEAR     46  45  93 CALM      30.07R
COOK           CLEAR     46  46 100 CALM      30.09R
WALKER         FAIR      59  53  79 NE3       30.08R
$$
MNZ012-019>021-037-050600-
   Northeast Minnesota

CITY           SKY/WX    TMP DP  RH WIND       PRES   REMARKS
DULUTH         PTCLDY    57  48  72 E6        30.07S
ELY            CLOUDY    52  50  93 CALM      30.09R
HIBBING        CLEAR     46  44  93 CALM      30.08S
EVELETH        CLEAR     45  45 100 CALM      30.09F
DULUTH HARBOR  PTCLDY    54  50  87 NE5       30.07S
TWO HARBORS    PTCLDY    55  50  82 CALM      30.07R
SILVER BAY     CLEAR     48  46  93 CALM      30.07R
GRAND MARAIS     N/A     49  46  90 N3        30.06R
G MARAIS ARPRT CLEAR     48  45  87 CALM      30.08R
$$
MNZ029>031-032-039>041-046>048-054>057-064-050600-
   West Central Minnesota

CITY           SKY/WX    TMP DP  RH WIND       PRES   REMARKS
FERGUS FALLS   CLEAR     63  55  77 E5        30.03R
WHEATON        CLEAR     55  54  94 CALM      30.04S
MORRIS         CLEAR     59  55  88 CALM      30.03R
ALEXANDRIA     CLEAR     61  55  81 E5        30.06S
ELBOW LAKE     FAIR      66  56  70 E3        30.04R
WADENA         CLEAR     57  54  88 E5        30.05S
GLENWOOD       CLEAR     64  57  77 N5        30.05S
APPLETON       CLEAR     63  55  77 CALM      30.03R
BENSON         PTCLDY    55  52  88 CALM      30.03S
ORTONVILLE     CLEAR     64  55  72 CALM      30.03S
MADISON        PTCLDY    61  54  77 CALM      30.03S
WILLMAR        FAIR      59  55  88 CALM      30.05S
$$
MNZ033>034-036-042>043-049>051-058-059-050600-
   Central Minnesota

CITY           SKY/WX    TMP DP  RH WIND       PRES   REMARKS
ST CLOUD       CLEAR     58  56  93 CALM      30.03S
SAUK CENTRE    FAIR      57  55  94 CALM      30.05R
PAYNESVILLE    CLEAR     54  53  97 CALM      30.04S
AITKIN         CLEAR     55  50  82 CALM      30.05S
PINE RIVER     CLEAR     54  50  87 CALM      30.10R
BRAINERD       CLEAR     55  52  89 CALM      30.06R
STAPLES        CLEAR     59  54  82 NE3       30.06R
LONG PRAIRIE   FAIR      59  54  82 N3        30.05S
LITCHFIELD     CLEAR     61  61 100 CALM      30.04S
BUFFALO        CLEAR     62  56  82 CALM      30.04S
$$
MNZ037-044-045-052-053-050600-
   East Central Minnesota

CITY           SKY/WX    TMP DP  RH WIND       PRES   REMARKS
PRINCETON      CLEAR     57  55  94 CALM      30.04R
MORA           CLEAR     55  54  94 CALM      30.06S
CAMBRIDGE      CLEAR     61  52  72 CALM      30.02R
RUSH CITY      PTCLDY    61  55  82 NE5       30.04S
MOOSE LAKE     CLEAR     57  52  82 NE3       30.05S
HINCKLEY       FAIR      55  55 100 NE3       30.06R
CLOQUET        MOCLDY    59  48  67 E3        30.08R
MCGREGOR       CLEAR     55  52  88 NE3       30.07S
$$
MNZ071>073-080-081-089-090-097-098-050600-
   Southwest Minnesota

CITY           SKY/WX    TMP DP  RH WIND       PRES   REMARKS
MONTEVIDEO     PTCLDY    61  52  72 CALM      30.05R
GRANITE FALLS  PTCLDY    58  55  89 CALM      30.05R
CANBY          MOCLDY    60  56  88 CALM      30.05R
MARSHALL       MOCLDY    59  54  82 CALM      30.05S
REDWOOD FALLS  PTCLDY    63  56  78 CALM      30.03S
OLIVIA         PTCLDY    59  52  77 CALM      30.03S
PIPESTONE      MOCLDY    63  57  82 E3        30.05R
WINDOM         MOCLDY    61  54  77 CALM      30.05S
WORTHINGTON    MOCLDY    63  55  77 SE3       30.04F
JACKSON        MOCLDY    59  55  88 CALM      30.05S
TRACY          MOCLDY    66  55  68 S6        30.04S
SLAYTON        MOCLDY    61  56  84 CALM      30.06R
$$
MNZ065>067-074>077-082>085-091>093-050600-
   South Central Minnesota

CITY           SKY/WX    TMP DP  RH WIND       PRES   REMARKS
MANKATO        PTCLDY    63  52  67 CALM      30.04S
NEW ULM        PTCLDY    63  54  72 CALM      30.04R
ST JAMES       PTCLDY    61  55  82 CALM      30.05S
FAIRMONT       PTCLDY    59  52  77 CALM      30.04R
GLENCOE        PTCLDY    60  57  89 CALM      30.03S
FARIBAULT      CLEAR     61  55  82 CALM      30.05R
OWATONNA       CLEAR     59  54  82 CALM      30.05S
WASECA         PTCLDY    55  54  94 CALM      30.06S
ALBERT LEA     PTCLDY    57  55  94 CALM      30.06R
$$
MNZ078>079-086>088-094>096-050600-
   Southeast Minnesota

CITY           SKY/WX    TMP DP  RH WIND       PRES   REMARKS
ROCHESTER      CLEAR     59  54  83 SW6       30.06S
RED WING       CLEAR     61  57  88 N3        30.02R
STANTON        CLEAR     61  55  82 CALM      30.02S
DODGE CENTER   CLEAR     57  52  82 SW3       30.06R
WINONA         CLEAR     61  57  88 CALM      30.03S
AUSTIN         PTCLDY    59  55  88 CALM      30.06R
PRESTON        CLEAR     60  55  82 CALM      30.06R
$$
ABBREVIATIONS USED IN REMARKS
   TC - TEMPERATURES IN CELSIUS
  WCI - WIND CHILL INDEX
   HX - HEAT INDEX
  VSB - VISIBILITY
$$


USA.gov is the U.S. government's official web portal to all federal, state and local government web resources and services.